Flag for Canada Weather past 2 weeks in Sarnia, Ontario, Canada

Now
68 °F

Overcast.


Feels Like: 68 °F
Forecast: 62 / 82 °F
Wind: 6 mph from Southwest

Location: Sarnia Airport

Current Time: Jul 26, 2014 at 3:57:42 AM

Latest Report: Jul 26, 2014 at 3:00 AM


Visibility: 9 mi

Pressure: 29.93 "Hg

Humidity: 64%

Dew point: 55 °F

Location of SarniaLocation

Historic Weather in Sarnia — Graph

°F

Sarnia temperature yesterday

Maximum temperature yesterday: 77 °F (at 3:00 PM)
Minimum temperature yesterday: 50 °F (at 4:00 AM)
Average temperature yesterday: 65 °F

Past Weeks' High & Low Weather Summary

 TemperatureHumidityPressure
High84 °F (Jul 22, 1:00 PM)100% (Jul 11, 5:00 AM)30.26 "Hg (Jul 11, 5:00 AM)
Low50 °F (Jul 25, 4:00 AM)41% (Jul 25, 1:00 PM)29.68 "Hg (Jul 15, 5:00 AM)
Average67 °F73%30.01 "Hg
* Reported Jul 11 2:00 AM — Jul 26 2:00 AM, Sarnia, Weather by CustomWeather, © 2014

Note: Actual official high and low records may vary slightly from our data, if they occured in-between our weather recording intervals... More about our weather records

Advertising

Sarnia weather history for July 13, 2014

 ConditionsComfort  
Time TempWeatherWind HumidityBarometerVisibility
12:00 AM
Jul 13
72 °FOvercast.9 mph83%29.89 "Hg9 mi
1:00 AM72 °FMostly cloudy.9 mph88%29.88 "Hg9 mi
2:00 AM73 °FFog.10 mph83%29.84 "Hg6 mi
3:00 AM73 °FLight rain. Overcast.13 mph83%29.82 "Hg7 mi
4:00 AM73 °FLight rain. Overcast.10 mph83%29.78 "Hg9 mi
5:00 AM73 °FLight rain. Passing clouds.13 mph89%29.77 "Hg7 mi
6:00 AM73 °FFog.13 mph89%29.75 "Hg6 mi
6:47 AM73 °FFog.14 mph89%29.76 "Hg6 mi
7:00 AM73 °FOvercast.12 mph89%29.77 "Hg7 mi
8:00 AM75 °FCloudy.12 mph83%29.78 "Hg9 mi
9:00 AM73 °FMostly cloudy.9 mph83%29.79 "Hg9 mi
10:00 AM75 °FOvercast.12 mph78%29.79 "Hg9 mi
11:00 AM77 °FScattered clouds.13 mph69%29.81 "Hg9 mi
12:00 PM79 °FSunny.12 mph61%29.81 "Hg9 mi
1:00 PM81 °FSunny.10 mph58%29.82 "Hg9 mi
2:00 PM82 °FSunny.14 mph51%29.81 "Hg9 mi
3:00 PM82 °FPassing clouds.15 mph45%29.81 "Hg9 mi
4:00 PM81 °FPartly sunny.10 mph54%29.81 "Hg9 mi
5:00 PM82 °FSunny.12 mph48%29.81 "Hg9 mi
6:00 PM82 °FSunny.10 mph48%29.82 "Hg9 mi
7:00 PM81 °FSunny.12 mph51%29.83 "Hg9 mi
8:00 PM79 °FSunny.6 mph51%29.85 "Hg9 mi
9:00 PM77 °FSunny.7 mph54%29.85 "Hg9 mi
10:00 PM75 °FSunny.3 mph57%29.85 "Hg9 mi
10:51 PM73 °FPassing clouds.15 mph65%29.87 "Hg9 mi
11:00 PM68 °FPassing clouds.12 mph83%29.88 "Hg9 mi
Weather by CustomWeather, © 2014

See weather overviewHow to use our weather pages